When you browse on this site, cookies collect data to enhance your experience and personalize the content and advertising you see.
Visit our Privacy Policy to learn more. By continuing to use the site, you agree to this use of cookies and data.
  • In Hungary
  • List of Countries
  • For 7 days
  • Water Temperature
  • Satellite Maps
  • Weather Map
  • News
  • Weather Widgets
  • user-avatar
    Login

    Hourly Weather Ouyang

    Today, 22 April, Monday

    Time Temperature Precipitation Wind Pressure Humidity
    00:00 +22°C° 0.6 mm 1 mps 721 mmHg 94%
    01:00 +21°C° 0 mm 1 mps 721 mmHg 95%
    02:00 +21°C° 1.8 mm 1 mps 720 mmHg 96%
    03:00 +21°C° 1.8 mm 1 mps 720 mmHg 97%
    04:00 +20°C° 1.8 mm 1 mps 720 mmHg 98%
    05:00 +21°C° 0.1 mm 1 mps 720 mmHg 97%
    06:00 +21°C° 0.1 mm 1 mps 721 mmHg 96%
    07:00 +22°C° 0 mm 1 mps 721 mmHg 94%
    08:00 +23°C° 0 mm 1 mps 721 mmHg 89%
    09:00 +24°C° 0 mm 1 mps 721 mmHg 85%
    10:00 +26°C° 0 mm 1 mps 722 mmHg 81%
    11:00 +27°C° 0 mm 1 mps 721 mmHg 79%
    12:00 +28°C° 0 mm 1 mps 721 mmHg 77%
    13:00 +28°C° 0 mm 1 mps 720 mmHg 75%
    14:00 +29°C° 0.5 mm 1 mps 720 mmHg 76%
    15:00 +29°C° 0.5 mm 1 mps 720 mmHg 76%
    16:00 +29°C° 0.5 mm 1 mps 719 mmHg 76%
    17:00 +28°C° 0.6 mm 1 mps 719 mmHg 82%
    18:00 +26°C° 0.6 mm 1 mps 719 mmHg 88%
    19:00 +25°C° 0.6 mm 1 mps 720 mmHg 94%
    20:00 +24°C° 0.5 mm 1 mps 720 mmHg 95%
    21:00 +24°C° 0.5 mm 1 mps 720 mmHg 96%
    22:00 +23°C° 0.5 mm 1 mps 721 mmHg 97%
    23:00 +22°C° 1.4 mm 0 mps 721 mmHg 97%

    Tomorrow, 23 April, Tuesday

    Time Temperature Precipitation Wind Pressure Humidity
    00:00 +22°C° 1.4 mm 0 mps 721 mmHg 97%
    01:00 +22°C° 1.4 mm 0 mps 721 mmHg 97%
    02:00 +22°C° 0.1 mm 0 mps 720 mmHg 97%
    03:00 +24°C° 0.1 mm 1 mps 720 mmHg 98%
    04:00 +24°C° 0.1 mm 1 mps 720 mmHg 98%
    05:00 +25°C° 0 mm 1 mps 720 mmHg 96%
    06:00 +25°C° 0 mm 1 mps 721 mmHg 94%
    07:00 +26°C° 0 mm 1 mps 721 mmHg 93%
    08:00 +27°C° 0.1 mm 1 mps 721 mmHg 89%
    09:00 +28°C° 0.1 mm 2 mps 722 mmHg 85%
    10:00 +29°C° 0.1 mm 2 mps 722 mmHg 81%
    11:00 +29°C° 0.1 mm 2 mps 722 mmHg 80%
    12:00 +29°C° 0.1 mm 2 mps 721 mmHg 79%
    13:00 +30°C° 0.1 mm 2 mps 721 mmHg 78%
    14:00 +30°C° 0.1 mm 2 mps 720 mmHg 76%
    15:00 +31°C° 0.1 mm 3 mps 720 mmHg 74%
    16:00 +31°C° 0.1 mm 3 mps 719 mmHg 72%
    17:00 +30°C° 0 mm 3 mps 719 mmHg 79%
    18:00 +28°C° 0 mm 2 mps 719 mmHg 86%
    19:00 +27°C° 0 mm 2 mps 719 mmHg 92%
    20:00 +26°C° 2 mm 2 mps 720 mmHg 94%
    21:00 +26°C° 2 mm 2 mps 720 mmHg 95%
    22:00 +26°C° 2 mm 1 mps 720 mmHg 96%
    23:00 +26°C° 0.2 mm 1 mps 720 mmHg 95%

    Day after tomorrow, 24 April, Wednesday

    Time Temperature Precipitation Wind Pressure Humidity
    00:00 +26°C° 0.2 mm 1 mps 720 mmHg 95%
    01:00 +26°C° 0.2 mm 1 mps 720 mmHg 94%
    02:00 +26°C° 0 mm 2 mps 720 mmHg 95%
    03:00 +25°C° 0 mm 2 mps 719 mmHg 95%
    04:00 +25°C° 0 mm 2 mps 719 mmHg 96%
    05:00 +26°C° 0.1 mm 2 mps 719 mmHg 94%
    06:00 +26°C° 0.1 mm 2 mps 720 mmHg 93%
    07:00 +27°C° 0.1 mm 2 mps 720 mmHg 91%
    08:00 +27°C° 0 mm 2 mps 720 mmHg 88%
    09:00 +28°C° 0 mm 2 mps 721 mmHg 84%
    10:00 +29°C° 0 mm 3 mps 721 mmHg 81%
    11:00 +30°C° 0 mm 3 mps 721 mmHg 77%
    12:00 +31°C° 0 mm 3 mps 720 mmHg 73%
    13:00 +33°C° 0 mm 3 mps 720 mmHg 69%
    14:00 +33°C° 0.4 mm 3 mps 719 mmHg 69%
    15:00 +33°C° 0.4 mm 3 mps 719 mmHg 69%
    16:00 +33°C° 0.4 mm 3 mps 718 mmHg 69%
    17:00 +30°C° 1.2 mm 2 mps 719 mmHg 77%
    18:00 +28°C° 1.2 mm 1 mps 719 mmHg 84%
    19:00 +27°C° 1.2 mm 1 mps 719 mmHg 92%
    20:00 +27°C° 1.7 mm 1 mps 720 mmHg 92%
    21:00 +26°C° 1.7 mm 1 mps 720 mmHg 93%
    22:00 +26°C° 1.7 mm 1 mps 721 mmHg 93%
    23:00 +26°C° 0.6 mm 1 mps 721 mmHg 94%

    25 April, Thursday

    Time Temperature Precipitation Wind Pressure Humidity
    00:00 +23°C° 0.6 mm 0 mps 720 mmHg 94%
    01:00 +23°C° 0.6 mm 0 mps 720 mmHg 95%
    02:00 +25°C° 2.9 mm 1 mps 720 mmHg 96%
    03:00 +25°C° 2.9 mm 1 mps 720 mmHg 96%
    04:00 +24°C° 2.9 mm 1 mps 720 mmHg 97%
    05:00 +25°C° 0.6 mm 1 mps 720 mmHg 95%
    06:00 +25°C° 0.6 mm 1 mps 721 mmHg 94%
    07:00 +24°C° 0.6 mm 0 mps 721 mmHg 93%
    08:00 +25°C° 0 mm 0 mps 721 mmHg 87%
    09:00 +29°C° 0 mm 1 mps 722 mmHg 81%
    10:00 +30°C° 0 mm 1 mps 722 mmHg 76%
    11:00 +31°C° 0.5 mm 1 mps 722 mmHg 71%
    12:00 +33°C° 0.5 mm 1 mps 721 mmHg 66%
    13:00 +32°C° 0.5 mm 0 mps 721 mmHg 60%
    14:00 +31°C° 0.8 mm 0 mps 720 mmHg 64%
    15:00 +31°C° 0.8 mm 0 mps 720 mmHg 67%
    16:00 +30°C° 0.8 mm 0 mps 720 mmHg 70%
    17:00 +28°C° 1.5 mm 0 mps 720 mmHg 76%
    18:00 +26°C° 1.5 mm 0 mps 720 mmHg 81%
    19:00 +25°C° 1.5 mm 0 mps 720 mmHg 87%
    20:00 +24°C° 0.5 mm 0 mps 721 mmHg 88%
    21:00 +24°C° 0.5 mm 0 mps 721 mmHg 89%
    22:00 +24°C° 0.5 mm 0 mps 721 mmHg 90%
    23:00 +23°C° 0.2 mm 0 mps 721 mmHg 90%

    26 April, Friday

    Time Temperature Precipitation Wind Pressure Humidity
    00:00 +23°C° 0.2 mm 0 mps 720 mmHg 91%
    01:00 +23°C° 0.2 mm 0 mps 720 mmHg 92%
    02:00 +22°C° 1 mm 0 mps 720 mmHg 93%
    03:00 +22°C° 1 mm 0 mps 720 mmHg 94%
    04:00 +22°C° 1 mm 0 mps 720 mmHg 95%
    05:00 +23°C° 0 mm 0 mps 720 mmHg 93%
    06:00 +23°C° 0 mm 0 mps 721 mmHg 91%
    07:00 +24°C° 0 mm 0 mps 721 mmHg 89%
    08:00 +25°C° 1.9 mm 0 mps 722 mmHg 84%
    09:00 +29°C° 1.9 mm 1 mps 722 mmHg 79%
    10:00 +30°C° 1.9 mm 1 mps 722 mmHg 74%
    11:00 +30°C° 1 mm 1 mps 722 mmHg 73%
    12:00 +30°C° 1 mm 1 mps 721 mmHg 73%
    13:00 +30°C° 1 mm 1 mps 721 mmHg 73%
    14:00 +29°C° 1.4 mm 1 mps 720 mmHg 77%
    15:00 +29°C° 1.4 mm 1 mps 720 mmHg 82%
    16:00 +28°C° 1.4 mm 1 mps 720 mmHg 86%
    17:00 +27°C° 0.1 mm 1 mps 721 mmHg 88%
    18:00 +26°C° 0.1 mm 1 mps 721 mmHg 89%
    19:00 +25°C° 0.1 mm 1 mps 721 mmHg 91%
    20:00 +25°C° 0 mm 1 mps 721 mmHg 92%
    21:00 +25°C° 0 mm 1 mps 721 mmHg 92%
    22:00 +24°C° 0 mm 1 mps 722 mmHg 92%
    23:00 +24°C° 0.9 mm 1 mps 721 mmHg 93%

    27 April, Saturday

    Time Temperature Precipitation Wind Pressure Humidity
    00:00 +24°C° 0.9 mm 1 mps 721 mmHg 94%
    01:00 +23°C° 0.9 mm 1 mps 721 mmHg 95%
    02:00 +23°C° 0.3 mm 1 mps 721 mmHg 96%
    03:00 +23°C° 0.3 mm 1 mps 721 mmHg 96%
    04:00 +23°C° 0.3 mm 1 mps 720 mmHg 97%
    05:00 +24°C° 0.4 mm 1 mps 721 mmHg 95%
    06:00 +24°C° 0.4 mm 1 mps 721 mmHg 94%
    07:00 +25°C° 0.4 mm 1 mps 722 mmHg 93%
    08:00 +26°C° 0.1 mm 2 mps 722 mmHg 88%
    09:00 +27°C° 0.1 mm 3 mps 722 mmHg 84%
    10:00 +28°C° 0.1 mm 4 mps 723 mmHg 79%
    11:00 +29°C° 0 mm 4 mps 722 mmHg 74%
    12:00 +30°C° 0 mm 5 mps 722 mmHg 69%
    13:00 +32°C° 0 mm 5 mps 721 mmHg 64%
    14:00 +32°C° 0 mm 5 mps 721 mmHg 65%
    15:00 +32°C° 0 mm 5 mps 720 mmHg 66%
    16:00 +32°C° 0 mm 5 mps 720 mmHg 66%
    17:00 +29°C° 0 mm 4 mps 720 mmHg 73%
    18:00 +28°C° 0 mm 3 mps 720 mmHg 79%
    19:00 +26°C° 0 mm 2 mps 720 mmHg 85%
    20:00 +26°C° 0.1 mm 2 mps 720 mmHg 88%
    21:00 +25°C° 0.1 mm 2 mps 720 mmHg 92%
    22:00 +24°C° 0.1 mm 1 mps 720 mmHg 95%
    23:00 +24°C° 0 mm 1 mps 720 mmHg 95%
    Show more